ARIANE 5 R/B, 42952

Orbit data source: Space-Track

ARIANE 5 R/B, 42952 is space debris in HEO originally from a launch on Fri, 29 Sep 2017 UTC launched from the French Guiana (FRGUI). Debris objects in space refer to the collection of defunct objects orbiting the Earth. Examples of debris include non-operational satellites, rocket bodies, and fragments generated from explosions, collisions, or faulty payload assembly.

Loading next visibility...
Identifier
42952, 2017-059C
Orbit
HEO
Country
Flag of FRFR
Related business
Manufacturer
ArianeGroup
Mission
Spacecraft
Bus & Motor
ESC-A, Unknown motor
Mass
~5,000 kg wet, ~5,000 kg dry
Launch date (UTC)
2017-09-29 (8 years ago)
Launch vehicle
Unknown
Launch site
French Guiana (FRGUI)
Object type
Payload
Rocket body
Debris
Shape & HBR
Cyl + 1 Nozzle, 3.5 m
Radar Cross Section
41.627 m², Large (>1 m²)

Expand to show TLE details & history
Last TLE update: 21 hours ago

TLE from 21 hours ago
0 ARIANE 5 R/B
1 42952U 17059C   26034.88770092  .00001502  00000-0  72163-3 0  9990
2 42952   6.1739 295.2076 7112017 250.0905  25.1330  2.48359277 71730
Epoch: 2026-02-03T21:18Z
TLE epoch observation values (Epoch: 2026-02-03T21:18:17.359Z)
Latitude
0.00025°
Longitude
-158.29518°
Altitude
8,701.693 km
Speed
5.963 km/s
True Right ascension
19h 41m 21s
True Declination
0° 00' 01"
Sunlit
Object was in daylight at epoch
Visualization orbit readout
Latitude
Unknown
Longitude
Unknown
Altitude
Unknown
Speed
Unknown
Apparent Right ascension
Unknown
Apparent Declination
Unknown
Sunlit
N/A
Visualization observer readout
Local Sidereal Time
20:15:44
Azimuth
Unknown
Elevation
Unknown
Doppler factor
Unknown
Orbital elements
Apogee altitude
33,045.048 km
Perigee altitude
275.286 km
Semi-major axis
23,038.304 km
Eccentricity
0.7112
Inclination
6.1739°
RAAN
295.2076°
Arg. of periapsis
250.0905°
True anomaly
109.83986°
Mean anomaly
25.133°
Eccentric anomaly
60.65216°
Mean motion
0.62068 °/min
Orbital period
580.01 mins
BSTAR
0.00072163
Loading maneuver chart data...
Computing Atmospheric mass density...
Loading historical data...
Loading historical data...
Loading historical data...
Loading historical data...
Loading historical data...
Loading historical data...
Loading historical data...
Other satellites on launch #59 in the year 2017 (2017-09-29 UTC)

Documentation

Showing up to 5 results
|